Terug naar catalogus

IRIDIUM 164

ActiefCommunicatiePO
NORAD 43577·PAYLOAD·🇺🇸 United States

Gelanceerd Jul 25, 2018 vanaf Vandenberg Space Force Base

Loading…

Volgende Passages (komende 24 uur)

TLE

VersSource: CelesTrak SupGP

Epoch: Sep 14, 2026, 22:08 UTC

1 43577C 18061J   26257.92256944 -.00002173  00000+0 -77687-3 0  2574
2 43577  86.4012  19.2391 0002078  95.6921  69.9693 14.34220671    16

Volg IRIDIUM 164 in realtime met AllMySat

Download on the App Store